TimeCST,TemperatureF,Dew PointF,Humidity,Sea Level PressureIn,VisibilityMPH,Wind Direction,Wind SpeedMPH,Gust SpeedMPH,PrecipitationIn,Events,Conditions,WindDirDegrees,DateUTC
12:15 AM,50.0,39.2,66,29.99,10.0,South,9.2,-,N/A,,Clear,170,2013-03-04 06:15:00
12:35 AM,48.2,39.2,71,29.98,10.0,South,9.2,-,N/A,,Clear,170,2013-03-04 06:35:00
12:55 AM,48.2,41.0,76,29.98,10.0,SSE,8.1,-,N/A,,Clear,160,2013-03-04 06:55:00
1:15 AM,48.2,41.0,76,29.97,10.0,SSE,9.2,-,N/A,,Clear,160,2013-03-04 07:15:00
1:35 AM,48.2,41.0,76,29.97,10.0,South,9.2,-,N/A,,Clear,170,2013-03-04 07:35:00
1:55 AM,48.2,42.8,82,29.96,10.0,South,9.2,-,N/A,,Clear,170,2013-03-04 07:55:00
2:15 AM,48.2,42.8,82,29.96,10.0,South,9.2,-,N/A,,Clear,180,2013-03-04 08:15:00
2:35 AM,50.0,42.8,76,29.94,10.0,South,9.2,-,N/A,,Clear,170,2013-03-04 08:35:00
2:55 AM,50.0,44.6,82,29.93,10.0,South,10.4,-,N/A,,Clear,170,2013-03-04 08:55:00
3:15 AM,50.0,44.6,82,29.92,10.0,South,11.5,-,N/A,,Clear,170,2013-03-04 09:15:00
3:35 AM,50.0,44.6,82,29.90,10.0,South,11.5,-,N/A,,Clear,170,2013-03-04 09:35:00
3:55 AM,50.0,44.6,82,29.90,10.0,South,11.5,-,N/A,,Clear,180,2013-03-04 09:55:00
4:15 AM,50.0,44.6,82,29.90,10.0,South,10.4,17.3,N/A,,Clear,180,2013-03-04 10:15:00
4:35 AM,50.0,44.6,82,29.90,10.0,South,11.5,17.3,N/A,,Clear,180,2013-03-04 10:35:00
4:55 AM,50.0,44.6,82,29.90,10.0,South,10.4,-,N/A,,Clear,180,2013-03-04 10:55:00
5:15 AM,50.0,44.6,82,29.90,10.0,South,9.2,-,N/A,,Clear,180,2013-03-04 11:15:00
5:55 AM,50.0,44.6,82,29.90,10.0,South,10.4,-,N/A,,Clear,170,2013-03-04 11:55:00
6:15 AM,50.0,46.4,87,29.90,10.0,South,8.1,-,N/A,,Clear,170,2013-03-04 12:15:00
6:35 AM,50.0,46.4,87,29.89,10.0,SSE,8.1,-,N/A,,Clear,160,2013-03-04 12:35:00
6:55 AM,50.0,46.4,87,29.89,10.0,SSE,9.2,-,N/A,,Clear,160,2013-03-04 12:55:00
7:15 AM,51.8,46.4,82,29.89,10.0,South,10.4,-,N/A,,Clear,170,2013-03-04 13:15:00
7:35 AM,51.8,48.2,88,29.89,10.0,South,9.2,16.1,N/A,,Clear,180,2013-03-04 13:35:00
7:55 AM,53.6,48.2,82,29.88,10.0,South,10.4,-,N/A,,Clear,180,2013-03-04 13:55:00
8:15 AM,55.4,50.0,82,29.88,10.0,South,12.7,17.3,N/A,,Clear,180,2013-03-04 14:15:00
8:35 AM,57.2,51.8,82,29.89,10.0,SSW,11.5,20.7,N/A,,Scattered Clouds,200,2013-03-04 14:35:00
8:55 AM,60.8,51.8,72,29.89,10.0,SSW,18.4,29.9,N/A,,Mostly Cloudy,200,2013-03-04 14:55:00
9:15 AM,60.8,51.8,72,29.89,10.0,SSW,17.3,27.6,N/A,,Overcast,200,2013-03-04 15:15:00
9:35 AM,60.8,51.8,72,29.88,10.0,SSW,16.1,24.2,N/A,,Overcast,210,2013-03-04 15:35:00
9:55 AM,64.4,53.6,68,29.87,10.0,SW,21.9,27.6,N/A,,Mostly Cloudy,220,2013-03-04 15:55:00
10:15 AM,64.4,53.6,68,29.85,10.0,SSW,25.3,32.2,N/A,,Scattered Clouds,210,2013-03-04 16:15:00
10:35 AM,66.2,53.6,64,29.85,10.0,SSW,25.3,32.2,N/A,,Scattered Clouds,200,2013-03-04 16:35:00
10:55 AM,69.8,53.6,56,29.85,10.0,SSW,20.7,35.7,N/A,,Scattered Clouds,210,2013-03-04 16:55:00
11:15 AM,69.8,53.6,56,29.84,10.0,SSW,21.9,31.1,N/A,,Partly Cloudy,200,2013-03-04 17:15:00
11:35 AM,71.6,53.6,53,29.83,10.0,SSW,20.7,34.5,N/A,,Clear,200,2013-03-04 17:35:00
11:55 AM,73.4,53.6,50,29.82,10.0,SSW,28.8,33.4,N/A,,Clear,210,2013-03-04 17:55:00
12:15 PM,71.6,53.6,53,29.81,10.0,SSW,27.6,35.7,N/A,,Clear,210,2013-03-04 18:15:00
12:55 PM,75.2,53.6,47,29.80,10.0,SW,18.4,26.5,N/A,,Clear,220,2013-03-04 18:55:00
1:15 PM,77.0,53.6,44,29.79,10.0,SW,19.6,29.9,N/A,,Clear,220,2013-03-04 19:15:00
1:35 PM,77.0,53.6,44,29.77,10.0,SSW,18.4,28.8,N/A,,Clear,210,2013-03-04 19:35:00
1:55 PM,73.4,53.6,50,29.76,10.0,SSW,19.6,26.5,N/A,,Clear,210,2013-03-04 19:55:00
2:15 PM,75.2,53.6,47,29.75,10.0,SSW,15.0,25.3,N/A,,Clear,210,2013-03-04 20:15:00
2:35 PM,75.2,53.6,47,29.74,10.0,SSW,20.7,27.6,N/A,,Clear,210,2013-03-04 20:35:00
2:55 PM,75.2,53.6,47,29.74,10.0,SSW,13.8,26.5,N/A,,Clear,200,2013-03-04 20:55:00
3:15 PM,75.2,53.6,47,29.73,10.0,SSW,20.7,29.9,N/A,,Clear,210,2013-03-04 21:15:00
3:35 PM,77.0,53.6,44,29.73,10.0,SSW,18.4,25.3,N/A,,Clear,200,2013-03-04 21:35:00
3:55 PM,77.0,53.6,44,29.73,10.0,SSW,19.6,25.3,N/A,,Clear,200,2013-03-04 21:55:00
4:15 PM,77.0,51.8,41,29.73,10.0,SSW,19.6,28.8,N/A,,Clear,210,2013-03-04 22:15:00
4:35 PM,75.2,53.6,47,29.73,10.0,SSW,18.4,25.3,N/A,,Clear,210,2013-03-04 22:35:00
4:55 PM,75.2,51.8,44,29.73,10.0,SSW,16.1,23.0,N/A,,Clear,210,2013-03-04 22:55:00
5:15 PM,75.2,51.8,44,29.73,10.0,SSW,12.7,19.6,N/A,,Clear,200,2013-03-04 23:15:00
5:35 PM,73.4,53.6,50,29.73,10.0,SSW,13.8,20.7,N/A,,Clear,200,2013-03-04 23:35:00
5:55 PM,73.4,53.6,50,29.73,10.0,South,10.4,-,N/A,,Clear,190,2013-03-04 23:55:00
6:15 PM,71.6,53.6,53,29.73,10.0,South,9.2,-,N/A,,Clear,180,2013-03-05 00:15:00
6:35 PM,71.6,53.6,53,29.73,10.0,South,8.1,-,N/A,,Clear,180,2013-03-05 00:35:00
6:55 PM,71.6,53.6,53,29.74,10.0,South,9.2,-,N/A,,Clear,180,2013-03-05 00:55:00
7:15 PM,71.6,53.6,53,29.75,10.0,South,8.1,-,N/A,,Clear,170,2013-03-05 01:15:00
7:35 PM,69.8,55.4,60,29.75,10.0,South,12.7,24.2,N/A,,Clear,170,2013-03-05 01:35:00
7:55 PM,68.0,55.4,64,29.76,10.0,South,11.5,23.0,N/A,,Clear,180,2013-03-05 01:55:00
8:35 PM,66.2,57.2,73,29.78,10.0,South,11.5,-,N/A,,Clear,170,2013-03-05 02:35:00
8:55 PM,66.2,55.4,68,29.79,10.0,South,11.5,18.4,N/A,,Clear,170,2013-03-05 02:55:00
9:15 PM,64.4,55.4,73,29.79,10.0,South,12.7,16.1,N/A,,Clear,170,2013-03-05 03:15:00
9:35 PM,64.4,55.4,73,29.79,10.0,SSE,9.2,-,N/A,,Clear,160,2013-03-05 03:35:00
9:55 PM,64.4,57.2,77,29.81,10.0,South,6.9,-,N/A,,Clear,170,2013-03-05 03:55:00
10:15 PM,64.4,57.2,77,29.81,10.0,South,8.1,-,N/A,,Clear,170,2013-03-05 04:15:00
10:35 PM,62.6,57.2,82,29.81,10.0,South,9.2,-,N/A,,Clear,170,2013-03-05 04:35:00
10:55 PM,62.6,57.2,82,29.80,10.0,South,10.4,-,N/A,,Clear,170,2013-03-05 04:55:00
11:15 PM,62.6,57.2,82,29.80,10.0,South,10.4,-,N/A,,Clear,170,2013-03-05 05:15:00
11:35 PM,62.6,57.2,82,29.81,10.0,South,9.2,-,N/A,,Clear,180,2013-03-05 05:35:00
11:55 PM,62.6,57.2,82,29.80,10.0,South,10.4,-,N/A,,Clear,170,2013-03-05 05:55:00